Location: Kr?ciwilk
(50.5459°N, 19.3630°E)
Time: 16:16:22
(UTC+00:00)

Daily predictions for brighter satellites

Satellite Brightness Start Highest point End
(mag) Time Altitude Azimuth Time Altitude Azimuth Time Altitude Azimuth
Cosmos 1943 3.6 19:21:17 10° SW 19:26:58 70° WNW 19:32:38 10° NNE
Meteor 1-10 Rocket 4.2 19:23:19 10° S 19:28:59 80° E 19:34:36 10° NNE
Cosmos 1536 2.9 19:25:49 10° NNW 19:29:44 78° W 19:33:39 10° S
Cosmos 2279 Rocket 4.2 19:23:37 10° NNW 19:29:50 79° W 19:36:01 10° S
MetOp-B 4.3 19:24:29 10° SSE 19:29:51 81° WSW 19:35:15 10° NNW
Nadezhda 4 Rocket 4.3 19:26:54 10° SSE 19:32:49 49° E 19:38:50 10° NNE
Meteor 2-10 4.1 19:28:34 10° N 19:34:05 80° ENE 19:39:21 10° SSE
Cosmos 1340 2.5 19:32:06 10° N 19:35:29 62° ENE 19:38:50 10° SSE
FALCON 9 R/B 4.4 19:33:07 10° SW 19:37:15 19° S 19:45:20 10° SE
Meteor 1-11 Rocket 4.0 19:31:54 10° NNW 19:37:37 78° W 19:43:26 10° S
Spot 2 Rocket 3.6 19:32:58 10° SSE 19:37:56 64° ENE 19:42:57 10° N
Okean-O 3.7 19:34:36 10° S 19:38:48 43° W 19:43:02 10° NNW
USA 245 2.1 19:37:00 10° SSE 19:39:20 74° ENE 19:42:02 10° N
Landsat 4 3.6 19:35:56 10° SSE 19:39:23 61° ENE 19:42:50 10° N
Cosmos 1500 Rocket 3.5 19:35:07 10° N 19:39:26 89° W 19:43:45 10° S
Cosmos 1697 Rocket 3.9 19:38:34 10° NNW 19:43:38 32° NE 19:48:39 10° ESE
SPOT 5 3.2 19:39:37 10° S 19:44:00 57° W 19:48:17 10° NNW
Cosmos 1626 3.6 19:45:10 11° SE 19:47:07 16° E 19:49:13 10° NE
Sich 1 3.1 19:42:57 10° N 19:47:21 88° W 19:51:44 10° S
Meteor 2-9 Rocket 4.4 19:41:43 10° NNW 19:47:37 82° W 19:53:28 10° S
NOSS 3-3 (C) 4.4 19:43:33 10° S 19:48:22 34° ESE 19:53:54 10° NE
Cosmos 1726 3.8 19:47:56 10° NW 19:50:33 24° W 19:53:08 10° SSW
Cosmos 1805 Rocket 3.7 19:46:39 10° NNW 19:51:05 82° W 19:55:30 10° S
Cosmos 1980 Rocket 4.0 19:48:54 10° NNW 19:53:27 24° NE 19:57:59 10° E
Cosmos 1633 Rocket 4.0 19:50:11 10° N 19:54:15 35° ENE 19:57:53 12° SE
Cosmos 1733 3.2 19:52:29 10° NNW 19:55:59 70° W 19:59:27 10° S
Cosmos 1666 Rocket 4.0 19:56:03 10° N 20:00:13 45° ENE 20:03:46 13° SE
SL-8 R/B 3.7 19:55:33 10° W 20:00:17 67° S 20:05:00 10° ESE
USA 234 4.0 19:54:29 10° ENE 20:00:52 57° NNW 20:07:15 10° W
Ariane Rocket 3.0 19:56:09 10° SSE 20:01:14 87° WSW 20:06:22 10° NNW
Cosmos 44 Rocket 3.9 19:57:44 10° NW 20:02:36 51° NE 20:07:10 11° ESE
Lacrosse 5 rocket 2.8 19:59:17 10° WNW 20:03:15 37° N 20:07:09 10° E
Meteor 2-4 Rocket 4.1 20:04:48 10° S 20:10:33 54° E 20:16:18 10° NNE
Cosmos 2026 Rocket 4.3 20:05:14 10° SSE 20:11:13 51° E 20:17:11 10° NNE
ERS-1 Rocket 3.6 20:08:55 10° S 20:13:48 52° W 20:18:44 10° NNW
SPOT 3 Rocket 3.7 20:10:36 11° S 20:15:37 74° WSW 20:20:48 10° NNW
USA 59 Rocket 1.0 20:12:10 10° WNW 20:15:56 41° SW 20:20:16 13° SSE
Cosmos 614 Rocket 4.0 20:12:07 10° SSW 20:17:20 84° ESE 20:22:36 10° NNE
Lacrosse 4 Rocket 1.7 20:14:24 10° NW 20:18:25 57° WSW 20:21:37 16° SSE
Cosmos 1340 Rocket 3.3 20:14:41 10° SSW 20:18:37 60° WNW 20:22:34 10° N
Cosmos 1818 3.6 20:13:27 10° SSW 20:18:50 64° SE 20:24:16 10° NE
Spot 1 4.1 20:14:54 10° NNE 20:18:58 56° ESE 20:22:51 12° S
Meteor 1-27 Rocket 4.1 20:15:46 10° SSW 20:21:14 64° WNW 20:26:49 10° N
IRIDIUM 106 4.3 20:23:16 10° N 20:28:32 76° E 20:32:49 16° S
H-2A R/B 4.3 20:25:54 11° ESE 20:29:00 22° ENE 20:32:20 10° N
Terra 2.8 20:24:37 10° S 20:29:05 42° W 20:33:34 10° NNW
Cosmos 1805 3.6 20:26:00 10° NNW 20:29:39 56° W 20:32:42 14° S
Cosmos 1833 Rocket 3.2 20:26:09 13° S 20:30:39 39° ESE 20:35:50 10° NE
Cosmos 1766 3.6 20:29:01 10° N 20:32:42 50° ENE 20:34:59 21° SE
Cosmos 1656 3.9 20:27:23 10° NW 20:32:48 63° WSW 20:37:08 16° S
Cosmos 1269 Rocket 4.0 20:33:02 10° SSW 20:38:15 69° ESE 20:43:31 10° NNE
Cosmos 2082 Rocket 3.9 20:42:09 14° ESE 20:44:11 17° E 20:47:37 10° ENE
Cosmos 1553 Rocket 4.1 20:40:08 10° N 20:46:11 62° ENE 20:50:36 19° SSE
Cosmos 1470 3.6 20:43:39 10° N 20:47:04 35° ENE 20:48:57 21° SE
Landsat 5 3.3 20:43:55 10° NNE 20:47:43 80° WNW 20:51:05 13° SSW
Cosmos 1151 Rocket 4.1 20:44:37 10° SSW 20:48:46 43° WNW 20:52:55 10° N
Cosmos 1975 3.6 20:47:05 10° NNW 20:50:51 44° W 20:53:47 15° SSW
Cosmos 2360 4.3 20:45:15 10° NNW 20:50:59 74° WSW 20:55:00 20° SSE
GEOS 3 Rocket 3.9 20:52:25 10° NE 20:57:24 45° SE 21:01:25 15° SSW
Meteor 1-18 Rocket 4.4 20:52:54 11° SSW 20:58:40 83° WNW 21:04:37 10° N
USA 281 3.4 20:54:10 18° SSE 20:59:12 65° WSW 21:05:47 10° NNW
Cosmos 1908 4.0 21:00:11 10° N 21:03:30 35° ENE 21:05:04 23° ESE
NOSS 3-3 (A) 3.9 20:59:26 10° SW 21:05:00 83° NW 21:11:36 10° NE
ARIANE 5 R/B 2.6 21:02:57 24° SSE 21:05:27 70° ENE 21:09:46 10° N
Cosmos 2285 Rocket 4.4 21:03:59 20° SSE 21:08:04 47° ESE 21:14:08 10° NNE
Cosmos 1092 Rocket 4.3 21:01:49 10° SSW 21:08:05 69° WNW 21:14:26 10° N
Cosmos 1328 Rocket 3.9 21:05:06 14° SSW 21:08:41 62° WNW 21:12:58 10° N
CZ-2C R/B 3.7 21:08:42 10° NNE 21:13:09 64° ESE 21:15:38 25° S
BREEZE-M DEB (TANK) 3.5 21:15:40 31° SSE 21:16:02 32° SE 21:20:59 10° ENE
Cosmos 1140 Rocket 3.5 21:14:22 21° S 21:17:54 65° ESE 21:23:05 10° NNE
Cosmos 1515 Rocket 3.4 21:17:02 25° S 21:19:32 83° ESE 21:23:53 10° NNE
Cosmos 1626 3.3 21:17:57 13° SW 21:20:23 32° WNW 21:23:21 10° N
NOSS 3-4 (A) 3.8 21:13:47 10° NW 21:20:35 81° SW 21:26:14 20° SE
NOSS 3-4 (C) 3.8 21:13:53 10° NW 21:20:41 81° SW 21:26:21 20° SE
Cosmos 2266 Rocket 4.4 21:17:38 23° SSE 21:21:22 50° E 21:27:26 10° NNE
Spot 4 4.2 21:19:17 23° SE 21:22:02 54° ENE 21:26:42 10° N
Cosmos 1707 2.6 21:26:10 35° SSE 21:27:32 64° E 21:31:10 10° NNE
Cosmos 1697 Rocket 3.0 21:22:24 10° NW 21:27:55 57° WSW 21:31:08 24° S
Cosmos 2322 Rocket 4.3 21:23:46 10° NNW 21:28:04 22° NE 21:32:22 10° E
Cosmos 1400 Rocket 4.3 21:27:50 20° ESE 21:28:56 22° E 21:32:02 10° NE
PSLV R/B 3.8 21:24:53 10° NNE 21:28:57 70° ESE 21:30:48 30° S
Cosmos 1470 Rocket 4.3 21:24:51 10° NNW 21:29:06 45° W 21:31:41 21° SSW
BREEZE-M DEB (TANK) 2.3 21:22:34 10° WSW 21:29:50 81° SSE 21:32:23 10° ENE
Cosmos 1869 Rocket 3.7 21:26:29 10° N 21:30:50 63° ENE 21:32:56 29° SSE
Cosmos 1300 4.2 21:28:14 10° NNE 21:31:10 23° ENE 21:32:38 18° ESE
Cosmos 1441 Rocket 3.1 21:32:54 10° N 21:36:28 63° ENE 21:37:42 36° SE
Orbus 7S? 2.9 21:33:09 10° SW 21:37:53 75° SSE 21:40:44 10° ENE
Cosmos 1980 Rocket 2.2 21:32:29 10° NNW 21:38:15 90° ENE 21:41:38 26° SSE
NOSS 3-3 (C) 4.5 21:33:20 10° WSW 21:38:52 60° NW 21:45:32 10° NE
Lacrosse 5 rocket 1.2 21:37:46 10° WNW 21:42:00 90° NE 21:44:16 26° ESE
SL-8 R/B 4.3 21:37:58 10° W 21:42:21 37° SSW 21:43:39 31° S
Cosmos 2333 Rocket 4.4 21:39:03 10° NNW 21:43:21 21° NE 21:47:40 10° E
USA 234 4.1 21:37:03 10° E 21:43:23 53° N 21:49:42 10° WNW
Cosmos 2228 Rocket 4.3 21:41:50 23° SE 21:43:32 31° E 21:47:30 10° NNE
Cosmos 44 Rocket 4.3 21:39:33 10° NW 21:43:54 32° WSW 21:45:49 24° SSW
Cosmos 1655 Rocket 4.4 21:41:21 25° SSE 21:45:01 54° E 21:51:13 10° NNE
Cosmos 1842 3.5 21:44:35 27° SSW 21:46:23 57° WNW 21:50:01 10° N
Cosmos 1674 3.2 21:44:53 25° SW 21:46:36 47° WNW 21:50:00 10° N
Cosmos 540 Rocket 3.7 21:42:33 10° NNW 21:47:43 64° ENE 21:50:44 25° SE
Cosmos 1763 Rocket 3.5 21:44:39 10° NNW 21:50:00 87° ENE 21:52:51 28° SSE
Cosmos 468 Rocket 4.2 21:47:20 10° NNW 21:52:38 65° ENE 21:55:43 25° SE
Cosmos 1933 Rocket 4.2 21:49:51 10° NNW 21:54:04 47° W 21:56:09 26° SSW
KORONAS-FOTON 4.4 21:55:04 25° SW 21:56:53 48° WNW 22:00:30 10° N
GP-B 3.7 21:54:57 10° NNE 21:59:11 43° E 22:00:59 29° SE
Cosmos 407 Rocket 3.5 21:56:19 23° SSW 21:59:44 86° WNW 22:04:59 10° NNE
SL-14 R/B 4.0 22:01:00 32° SE 22:02:02 38° E 22:05:36 10° NNE
H-2A R/B 3.0 22:01:54 30° SSW 22:03:38 50° W 22:07:50 10° NNW
Aureole 3 4.4 22:04:37 21° E 22:05:00 21° E 22:07:33 10° NE
Cosmos 2369 3.7 22:00:05 10° NNW 22:05:49 75° WSW 22:08:52 29° SSE
Cosmos 1862 Rocket 4.4 22:05:04 27° SE 22:06:36 36° E 22:10:35 10° NNE
Cosmos 1607 4.3 22:00:39 10° SW 22:07:06 70° NW 22:13:37 10° NE
Cosmos 1954 Rocket 4.4 22:05:17 30° SSE 22:07:35 50° ESE 22:12:42 10° NNE
Cosmos 1455 4.4 22:05:30 10° NNE 22:07:38 15° ENE 22:09:28 11° E
Cosmos 1190 Rocket 4.0 22:10:54 29° S 22:13:36 72° ESE 22:18:55 10° NNE
ALOS 2 2.6 22:12:16 35° S 22:14:05 72° WSW 22:18:29 10° NNW
Cosmos 1833 Rocket 3.7 22:09:12 10° WSW 22:14:32 43° NW 22:19:55 10° NNE
Cosmos 2219 Rocket 4.5 22:11:53 10° NNW 22:16:08 21° NE 22:20:23 10° E
ATLAS 2AS CENTAUR R/B 4.1 22:10:38 10° NW 22:17:06 38° NNE 22:23:20 10° E
SL-16 R/B 2.8 22:12:38 10° NNW 22:18:12 53° NE 22:22:42 16° SE
COSMOS 2406 3.3 22:15:19 28° S 22:18:19 65° ESE 22:24:02 10° NE
Cosmos 1758 3.1 22:16:56 10° N 22:20:47 89° W 22:22:01 42° S
PSLV R/B 3.9 22:17:27 10° NNE 22:21:51 55° E 22:23:26 35° SSE
Meteor 1-12 Rocket 4.4 22:17:34 10° NNW 22:23:31 76° W 22:26:45 29° S
Meteor 1-23 Rocket 4.2 22:20:52 29° S 22:23:51 85° E 22:29:33 10° NNE
Cosmos 2082 Rocket 2.2 22:23:57 25° SSW 22:27:25 87° ESE 22:33:11 10° NNE
Meteor 2-20 4.4 22:21:41 10° N 22:27:54 87° E 22:31:23 28° S
Cosmos 2251 Rocket 4.0 22:24:49 18° SW 22:28:36 59° WNW 22:33:51 10° NNE
CZ-2C R/B 4.2 22:26:20 26° SSE 22:29:12 67° E 22:51:08 10° N
Cosmos 1707 Rocket 3.6 22:28:05 36° S 22:29:50 74° E 22:34:18 10° NNE
Cosmos 2360 Rocket 3.5 22:25:03 10° NNW 22:30:19 37° NE 22:35:33 10° ESE
GEOS 3 Rocket 4.5 22:30:27 10° NE 22:35:27 49° NW 22:40:23 10° WSW
Meteor 2-10 Rocket 3.9 22:30:14 10° NNW 22:36:01 64° W 22:38:54 29° S
Okean 2 4.3 22:38:45 27° SE 22:40:02 34° E 22:43:40 10° NNE
Okean 3 3.5 22:41:11 38° SSE 22:42:34 64° E 22:46:40 10° NNE
Meteor 1-4 Rocket 3.6 22:42:38 24° E 22:42:51 24° E 22:45:20 10° NE
Cosmos 2315 Rocket 4.5 22:39:58 10° NNW 22:46:03 51° W 22:49:34 25° SSW
H-2A R/B 2.1 22:43:33 10° NNE 22:47:59 74° ESE 22:49:42 36° S
USA 267 4.0 22:42:41 10° ENE 22:48:33 34° SE 22:51:04 26° S
Cosmos 1315 Rocket 3.9 22:49:16 26° SE 22:50:31 33° E 22:54:05 10° NNE
Cosmos 2237 4.2 22:47:21 10° NNW 22:53:08 84° WSW 22:56:34 25° SSE
Cosmos 1346 Rocket 2.9 22:54:02 10° NNW 22:57:51 56° W 22:58:57 40° SSW
Cosmos 1908 Rocket 3.8 22:53:48 10° N 22:58:12 63° ENE 23:00:16 29° SSE
Cosmos 1733 Rocket 3.7 22:57:31 10° NNW 23:01:38 43° W 23:03:12 30° SW
SL-4 R/B 3.6 23:02:20 21° SE 23:02:20 21° SE 23:05:11 10° E
Helios 1A Rocket 4.1 23:01:29 17° ESE 23:03:51 34° ENE 23:07:22 10° N
Cosmos 2278 3.8 22:58:23 10° NW 23:04:03 64° WSW 23:07:01 28° S
Cosmos 1400 Rocket 3.9 23:02:59 24° WSW 23:04:46 37° WNW 23:08:28 10° N
Cosmos 1244 Rocket 4.5 23:02:01 28° S 23:05:31 87° W 23:11:49 10° N
Cosmos 1300 3.8 23:02:48 10° NNW 23:05:54 28° W 23:06:40 26° WSW
Cosmos 1850 Rocket 4.3 23:10:20 30° S 23:12:49 57° ESE 23:17:58 10° NNE
Cosmos 2322 Rocket 2.2 23:07:18 10° NNW 23:13:00 81° ENE 23:17:16 18° SSE
Cosmos 841 Rocket 3.6 23:08:28 10° NNW 23:13:38 59° WSW 23:16:05 30° S
Cosmos 1408 4.4 23:15:08 14° ESE 23:16:00 16° E 23:17:54 10° NE
Resurs 1-4 Rocket 4.4 23:13:58 10° NE 23:16:38 14° E 23:19:17 10° ESE
Cosmos 1242 Rocket 3.5 23:19:14 24° ESE 23:19:41 25° E 23:22:06 10° NE
Lacrosse 5 rocket 3.0 23:16:52 10° W 23:19:04 18° WSW 23:19:04 18° WSW
Okean 1-7 3.0 23:18:10 35° SSW 23:19:57 83° WNW 23:24:19 10° N
Cosmos 1980 Rocket 3.9 23:17:52 10° WNW 23:21:26 17° W 23:23:22 15° WSW
Cosmos 2228 Rocket 4.3 23:19:15 20° WSW 23:21:37 33° WNW 23:25:46 10° N
Cosmos 1741 Rocket 4.1 23:19:46 30° S 23:22:21 65° ESE 23:27:36 10° NNE
CZ-2D R/B 4.4 23:21:15 10° NE 23:24:32 16° E 23:27:46 10° SE
USA 234 3.3 23:19:32 10° ESE 23:26:06 83° NNE 23:32:41 10° WNW
SL-27 R/B 3.3 23:27:58 25° ESE 23:28:10 25° ESE 23:30:34 10° NE
Cosmos 2333 Rocket 2.3 23:22:50 10° NNW 23:28:36 77° ENE 23:33:45 13° SE
Cosmos 1356 Rocket 4.4 23:27:09 24° WSW 23:29:04 37° WNW 23:32:59 10° N
Cosmos 1238 4.2 23:26:35 10° N 23:29:57 83° E 23:30:45 47° SSE
Cosmos 1953 2.5 23:27:03 10° NNW 23:30:53 55° W 23:32:08 36° SSW
Timation 1 Rocket 4.4 23:28:39 27° S 23:31:58 67° ESE 23:37:54 10° NE
Genesis I 2.8 23:33:02 42° SSW 23:34:06 77° SE 23:37:41 10° NE
Cosmos 1709 Rocket 4.4 23:30:45 21° SSE 23:34:58 58° E 23:41:13 10° NNE
BREEZE-M DEB (TANK) 4.1 23:34:39 31° SSE 23:35:18 33° SE 23:41:04 10° ENE
IDEFIX/ARIANE 42P 4.1 23:34:38 10° NE 23:39:02 26° E 23:42:54 12° SE
Cosmos 1703 Rocket 3.6 23:38:29 31° SSW 23:40:33 78° W 23:45:02 10° N
SL-19 R/B 4.1 23:36:50 10° NNE 23:40:48 77° ESE 23:42:10 37° S
Cosmos 1455 2.5 23:39:02 10° NNW 23:42:21 44° W 23:43:13 36° SW
Cosmos 1300 Rocket 3.5 23:40:16 10° N 23:44:36 81° ENE 23:47:00 26° SSE
ADEOS II 4.4 23:42:42 10° NE 23:45:49 16° E 23:48:55 10° SE
SJ 16-02 1.7 23:45:36 28° S 23:47:36 54° ESE 23:51:50 10° NNE
RESURS DK-1 2.2 23:44:46 10° NW 23:48:50 74° WSW 23:51:06 25° SSE
ATLAS CENTAUR R/B 3.2 23:56:52 12° SE 23:58:01 13° ESE 23:59:49 10° E
